Stations météo

réclame
Mon MeteoGroup
Santander/Parayas, Espagne (8021): Température de l'air & dewpoint: 10.12.2017 19:00:00 - 16.12.2017 19:00:00 (CET)Santander/Parayas, Espagne (8021): Vitesse du vent & gusts: 10.12.2017 19:00:00 - 16.12.2017 19:00:00 (CET)Santander/Parayas, Espagne (8021): Direction du vent: 10.12.2017 19:00:00 - 16.12.2017 19:00:00 (CET)Santander/Parayas, Espagne (8021): reduced air pressure: 10.12.2017 19:00:00 - 16.12.2017 19:00:00 (CET)Santander/Parayas, Espagne (8021): visibility: 10.12.2017 19:00:00 - 16.12.2017 19:00:00 (CET)
Date & Time tt [°C] td [°C] ff [km/h] ff [knt] fx [km/h] fx [knt] dd ppp [hPa] vv [km]
16.12.2017 19:00:00 8,0 6,0 15 8 - - SSW 1028,2 25
16.12.2017 18:00:00 8,8 5,9 15 8 - - W 1027,4 -
16.12.2017 17:00:00 10,5 4,0 18 10 - - NW 1026,7 -
16.12.2017 16:00:00 11,1 4,9 9 5 - - NW 1025,9 30
16.12.2017 15:00:00 10,2 6,5 21 11 - - WNW 1025,5 -
16.12.2017 14:00:00 11,4 6,2 9 5 - - NW 1025,4 -
16.12.2017 13:00:00 9,5 7,8 11 6 - - SSW 1025,2 30
16.12.2017 12:00:00 8,8 7,2 4 2 - - SSE 1025,0 -
16.12.2017 11:00:00 9,7 7,3 2 1 - - W 1024,2 -
16.12.2017 10:00:00 8,3 6,6 8 4 - - NW 1023,1 30
16.12.2017 09:00:00 9,2 5,9 13 7 - - NNW 1022,2 -
16.12.2017 08:00:00 9,1 6,0 18 10 - - WNW 1021,6 -
16.12.2017 07:00:00 8,8 5,4 11 6 - - WSW 1020,6 20
16.12.2017 06:00:00 9,1 5,1 11 6 - - W 1020,1 -
16.12.2017 05:00:00 10,6 5,3 24 13 - - NW 1019,5 -
16.12.2017 04:00:00 9,9 5,4 15 8 - - WNW 1019,3 -
16.12.2017 03:00:00 10,3 6,8 22 12 - - NNW 1018,9 -
16.12.2017 02:00:00 9,4 6,7 24 13 - - WNW 1018,5 -
16.12.2017 01:00:00 10,3 6,0 24 13 - - NW 1018,2 -
16.12.2017 00:00:00 8,9 8,3 8 4 - - WSW 1018,0 -
15.12.2017 23:00:00 9,7 8,4 16 9 - - WNW 1017,5 -
15.12.2017 22:00:00 9,0 8,7 13 7 - - NW 1016,9 9
15.12.2017 21:00:00 9,5 9,0 21 11 - - W 1016,4 -
15.12.2017 20:00:00 7,3 7,3 8 4 - - SSW 1015,9 -
15.12.2017 19:00:00 6,8 6,8 9 5 - - WNW 1015,1 18
15.12.2017 18:00:00 9,2 7,6 28 15 - - WSW 1014,4 -
15.12.2017 17:00:00 9,5 6,6 13 7 - - W 1013,9 -
15.12.2017 16:00:00 9,3 7,7 21 11 - - WSW 1013,4 -
15.12.2017 15:00:00 9,8 7,8 24 13 - - WSW 1013,0 -
15.12.2017 14:00:00 10,3 7,9 22 12 - - W 1013,0 -
15.12.2017 13:00:00 11,7 8,3 24 13 - - WSW 1012,8 15
15.12.2017 12:00:00 10,3 7,8 26 14 - - WSW 1013,6 -
15.12.2017 11:00:00 9,5 8,5 18 10 - - SW 1013,3 -
15.12.2017 10:00:00 8,4 7,8 21 11 - - SW 1013,0 12
15.12.2017 09:00:00 7,5 7,5 18 10 - - SW 1012,9 -
15.12.2017 08:00:00 8,1 8,0 22 12 - - WSW 1012,2 -
15.12.2017 07:00:00 8,0 8,0 31 17 - - WSW 1012,0 8
15.12.2017 06:00:00 8,1 8,1 22 12 - - WSW 1011,8 -
15.12.2017 05:00:00 8,3 8,3 24 13 - - WNW 1012,7 -
15.12.2017 04:00:00 12,9 6,7 24 13 - - W 1011,0 -
15.12.2017 03:00:00 12,9 6,5 28 15 - - W 1010,7 -
15.12.2017 02:00:00 13,2 5,2 29 16 - - WSW 1011,3 -
15.12.2017 01:00:00 13,0 5,3 28 15 - - W 1012,6 -
15.12.2017 00:00:00 12,6 5,2 22 12 - - WSW 1012,6 -
14.12.2017 23:00:00 12,9 8,4 24 13 - - W 1012,9 -
14.12.2017 22:00:00 13,5 8,3 37 20 - - W 1012,9 20
14.12.2017 21:00:00 14,0 8,1 37 20 - - W 1012,8 -
14.12.2017 20:00:00 13,8 9,1 34 18 - - W 1012,9 -
14.12.2017 19:00:00 13,8 10,8 24 13 - - W 1012,8 1,2
14.12.2017 18:00:00 12,9 10,9 24 13 - - W 1013,3 -
14.12.2017 17:00:00 13,5 11,4 18 10 - - W 1013,7 -
14.12.2017 16:00:00 13,3 11,5 22 12 - - W 1014,2 12
14.12.2017 15:00:00 14,6 12,1 18 10 - - WSW 1014,4 -
14.12.2017 14:00:00 14,1 11,9 16 9 - - W 1015,4 -
14.12.2017 13:00:00 14,4 11,9 16 9 - - W 1016,2 20
14.12.2017 12:00:00 13,7 11,9 15 8 - - SW 1017,0 -
14.12.2017 11:00:00 13,0 12,5 16 9 - - SW 1017,3 -
14.12.2017 10:00:00 12,0 12,0 15 8 - - SSW 1017,6 12
14.12.2017 09:00:00 11,9 11,9 8 4 - - SW 1018,2 -
14.12.2017 08:00:00 12,1 12,1 18 10 - - SW 1017,9 -
14.12.2017 07:00:00 12,0 12,0 22 12 - - W 1018,4 7
14.12.2017 06:00:00 12,0 12,0 24 13 - - W 1018,6 -
14.12.2017 05:00:00 12,5 12,5 16 9 - - WSW 1018,7 -
14.12.2017 04:00:00 12,5 12,5 8 4 - - SW 1019,1 -
14.12.2017 03:00:00 13,1 13,1 15 8 - - WSW 1019,1 -
14.12.2017 02:00:00 13,1 13,1 22 12 - - W 1019,1 -
14.12.2017 01:00:00 13,0 13,0 18 10 - - W 1019,3 -
14.12.2017 00:00:00 13,6 13,6 26 14 - - W 1019,2 -
13.12.2017 23:00:00 12,2 12,2 5 3 - - SW 1019,4 -
13.12.2017 22:00:00 12,4 12,1 18 10 - - SSW 1018,9 10
13.12.2017 21:00:00 13,4 11,8 16 9 - - SSW 1018,8 -
13.12.2017 20:00:00 13,5 10,3 18 10 - - SSW 1017,9 -
13.12.2017 19:00:00 13,8 9,4 16 9 - - SSW 1017,4 9
13.12.2017 18:00:00 13,9 8,2 16 9 - - S 1017,5 -
13.12.2017 17:00:00 14,9 7,5 16 9 - - SSW 1017,6 -
13.12.2017 16:00:00 14,8 5,9 18 10 - - WSW 1016,4 30
13.12.2017 15:00:00 14,9 5,4 15 8 - - SW 1017,5 -
13.12.2017 14:00:00 15,7 5,8 11 6 - - SSW 1017,7 -
13.12.2017 13:00:00 15,3 7,3 11 6 - - SSW 1018,6 30
13.12.2017 12:00:00 14,5 5,9 18 10 - - SSW 1019,7 -
13.12.2017 11:00:00 12,2 5,7 24 13 - - SSW 1020,3 -
13.12.2017 10:00:00 10,9 4,9 26 14 - - S 1020,7 25
13.12.2017 09:00:00 10,5 4,9 15 8 - - SW 1020,4 -
13.12.2017 08:00:00 10,5 4,8 21 11 - - SSW 1020,6 -
13.12.2017 07:00:00 10,6 4,9 24 13 - - SSW 1020,4 25
13.12.2017 06:00:00 9,9 5,2 16 9 - - SW 1019,3 -
13.12.2017 05:00:00 9,9 5,3 18 10 - - SSW 1019,8 -
13.12.2017 04:00:00 10,1 3,1 13 7 - - SSW 1020,3 -
13.12.2017 03:00:00 9,2 2,9 16 9 - - SSW 1020,1 -
13.12.2017 02:00:00 8,4 3,0 9 5 - - SW 1020,8 -
13.12.2017 01:00:00 7,8 3,3 18 10 - - SSW 1021,1 -
13.12.2017 00:00:00 7,6 3,4 13 7 - - SSW 1021,9 -
12.12.2017 23:00:00 7,8 4,0 15 8 - - SSW 1021,5 -
12.12.2017 22:00:00 7,2 4,0 13 7 - - SSW 1021,1 30
12.12.2017 21:00:00 7,6 4,4 8 4 - - SSW 1021,1 -
12.12.2017 20:00:00 7,9 5,4 13 7 - - SSW 1020,3 -
12.12.2017 19:00:00 8,8 6,4 9 5 - - SSW 1020,6 25
12.12.2017 18:00:00 9,4 7,3 4 2 - - SW 1020,1 -
12.12.2017 17:00:00 10,1 7,9 4 2 - - SSE 1019,6 -
12.12.2017 16:00:00 9,6 8,4 5 3 - - SE 1019,0 25
12.12.2017 15:00:00 8,2 7,9 8 4 - - ESE 1018,8 -
12.12.2017 14:00:00 7,7 7,4 2 1 - - NNE 1019,1 -
12.12.2017 13:00:00 7,2 6,6 15 8 - - SSE 1018,6 3,0
12.12.2017 12:00:00 6,8 6,1 8 4 - - S 1018,3 -
12.12.2017 11:00:00 6,6 6,3 11 6 - - SE 1017,5 -
12.12.2017 10:00:00 6,5 5,4 9 5 - - ENE 1016,8 4,0
12.12.2017 09:00:00 6,8 4,4 15 8 - - SSW 1015,7 -
12.12.2017 08:00:00 6,1 4,1 9 5 - - SW 1015,3 -
12.12.2017 07:00:00 5,7 3,9 18 10 - - SSW 1014,3 12
12.12.2017 06:00:00 5,8 4,1 18 10 - - SW 1013,2 -
12.12.2017 05:00:00 6,2 4,7 21 11 - - SSW 1012,6 -
12.12.2017 04:00:00 7,0 4,0 16 9 - - SSW 1011,4 -
12.12.2017 03:00:00 7,9 3,7 9 5 - - S 1010,1 -
12.12.2017 02:00:00 9,7 1,2 15 8 - - NNW 1009,3 -
12.12.2017 01:00:00 10,0 1,9 22 12 - - NW 1008,8 -
12.12.2017 00:00:00 9,3 3,5 28 15 - - WNW 1008,4 -
11.12.2017 23:00:00 9,0 4,6 18 10 - - NW 1007,1 -
11.12.2017 22:00:00 9,1 3,3 22 12 - - WNW 1005,7 -
11.12.2017 21:00:00 7,4 1,7 22 12 - - W 1004,3 -
11.12.2017 20:00:00 9,2 4,3 24 13 - - WNW 1002,7 -
11.12.2017 19:00:00 8,3 4,0 26 14 - - WSW 1001,1 12
11.12.2017 18:00:00 6,7 5,3 16 9 - - SW 999,6 -
11.12.2017 17:00:00 7,0 5,5 29 16 - - W 998,4 -
11.12.2017 16:00:00 7,1 6,0 22 12 - - WSW 996,5 8
11.12.2017 15:00:00 7,7 6,0 29 16 - - WSW 995,0 -
11.12.2017 14:00:00 8,6 6,3 35 19 - - W 994,5 -
11.12.2017 13:00:00 9,4 5,9 31 17 - - W 993,5 10
11.12.2017 12:00:00 9,1 5,6 29 16 - - WSW 992,7 -
11.12.2017 11:00:00 10,3 5,3 22 12 - - WSW 991,3 -
11.12.2017 10:00:00 9,8 6,0 18 10 - - W 990,5 18
11.12.2017 09:00:00 8,4 4,8 16 9 - - WSW 989,2 -
11.12.2017 08:00:00 9,0 6,1 24 13 - - W 988,5 -
11.12.2017 07:00:00 9,2 5,1 11 6 - - SW 987,9 2,5
11.12.2017 06:00:00 9,6 5,5 16 9 - - WSW 987,0 -
11.12.2017 05:00:00 9,9 6,6 21 11 - - SSW 986,8 -
11.12.2017 04:00:00 10,7 7,1 29 16 - - W 985,9 -
11.12.2017 03:00:00 11,2 7,8 35 19 - - W 985,0 -
11.12.2017 02:00:00 10,7 9,6 15 8 - - WSW 983,7 -
11.12.2017 01:00:00 10,5 9,7 28 15 - - W 983,5 -
11.12.2017 00:00:00 11,4 10,5 39 21 96 52 W 984,1 -
10.12.2017 23:00:00 18,1 9,3 39 21 - - SSW 979,0 -
10.12.2017 22:00:00 17,6 9,5 35 19 - - SSW 981,1 20
10.12.2017 21:00:00 12,9 12,1 4 2 - - WNW 984,4 -
10.12.2017 20:00:00 12,0 12,0 15 8 - - E 987,6 -
10.12.2017 19:00:00 12,1 12,1 4 2 - - NE 991,9 9

tt = Température de l'air
td = dewpoint
ff = Vitesse du vent
fx = gusts
dd = Direction du vent
ppp = reduced air pressure
vv = visibility

stations d'obs. à proximité